Location: Newark
(42.8270°N, 8.3618°W)
Time: 08:07:06
(UTC+00:00)

Envisat - Visible Passes

Search period start: 01 October 2020 00:00
Search period end: 11 October 2020 00:00
Orbit: 764 x 766 km, 98.1° (Epoch: 01 October)

Date Brightness Start Highest point End Pass type
(mag) Time Alt. Az. Time Alt. Az. Time Alt. Az.
01 Oct 6.7 19:26:53 10° W 19:27:51 10° W 19:28:48 10° WNW visible
02 Oct 5.3 05:51:33 10° NE 05:55:58 29° E 06:00:22 10° SSE visible
02 Oct 5.8 18:46:34 10° SSW 18:50:38 24° W 18:54:42 10° NW visible
03 Oct 6.3 05:16:23 10° ENE 05:18:48 13° E 05:21:12 10° ESE visible
04 Oct 6.4 19:13:48 10° WSW 19:16:20 14° W 19:18:53 10° WNW visible
05 Oct 5.7 05:40:29 10° NE 05:44:31 23° E 05:48:32 10° SE visible
05 Oct 5.3 18:34:45 10° SSW 18:39:10 30° W 18:43:38 10° NW visible
06 Oct 6.7 05:06:52 10° E 05:07:17 10° E 05:07:42 10° E visible
07 Oct 4.7 06:05:21 10° NNE 06:10:08 40° E 06:14:53 10° SSE visible
07 Oct 6.2 19:01:29 10° SW 19:04:50 18° W 19:08:12 10° NW visible
08 Oct 6.1 05:29:32 10° NE 05:33:03 19° E 05:36:33 10° SE visible
10 Oct 5.1 05:54:09 10° NNE 05:58:42 32° E 06:03:12 10° SSE visible
10 Oct 5.8 18:49:27 10° SW 18:53:21 22° W 18:57:17 10° NW visible
